[[{"header":{"parameterUnit":"m.s-1","parameterCategory":1,"la1":30.2991,"la2":30.254,"lo1":-89.0895,"lo2":-89.0444,"dy":0.0017,"dx":0.0017,"nx":28,"ny":28,"refTime":"2024-05-28T09:00:00:Z","depth":0,"parameterNumber":2,"parameterNumberName":"U-component_of_WINDS"},"data":[0,0,0,0,0,0,0,0,0,0,0,0,0,0,0,0,0,0,0,0,0,0,0,0,0,0,0,0,0,0,0,0,0,0,0,0,0,0,0,0,0,0,0,0,0,0,0,0,0,0,0,0,0,0,0,0,0,0,0.2316,0.2317,0,0.2409,0.241,0.2411,0.2445,0.2445,0.2444,0.2444,0.2539,0.2541,0.2544,0,0,0,0,0,0,0,0,0,0,0,0,0,0.2165,0.2168,0.2316,0.2317,0.2318,0.2409,0.241,0.2411,0.2445,0.2445,0.2444,0.2444,0.2538,0.2541,0.2545,0,0,0,0,0,0,0,0,0,0,0,0,0,0.2242,0.2169,0.2316,0.2346,0.2349,0.2409,0.241,0.2412,0.2445,0.2445,0.2444,0.2444,0.2537,0.2541,0.2545,0.2581,0,0,0.2558,0.256,0,0,0,0,0,0,0,0,0.2237,0.2247,0.234,0.2344,0.2348,0.2415,0.2392,0.2468,0.2445,0.2409,0.2444,0.2443,0.2498,0.2505,0.2524,0.2585,0.2589,0.2558,0.2561,0.2563,0.2564,0,0,0,0,0,0,0,0.2232,0.2243,0.2353,0.2342,0.2346,0.2354,0.2364,0.2406,0.2455,0.2412,0.2415,0.2425,0.25,0.252,0.2526,0.2591,0.2558,0.2562,0.2565,0.2566,0.2685,0.2686,0,0,0,0,0,0,0.2222,0.2239,0.235,0.2356,0.229,0.2357,0.2369,0.2394,0.2454,0.2463,0.2425,0.2426,0.2513,0.2521,0.253,0.2575,0.2563,0.2567,0.2569,0.2684,0.2685,0.2686,0,0,0,0,0,0,0.2218,0.2231,0.2346,0.2298,0.2313,0.236,0.2388,0.2396,0.2416,0.2465,0.2473,0.2437,0.2513,0.2524,0.2568,0.2579,0.2568,0.2572,0.2684,0.2685,0.2685,0.2666,0,0,0,0,0,0,0.2214,0.223,0.2244,0.2298,0.2315,0.2383,0.2389,0.2398,0.2423,0.2425,0.2478,0.2486,0.2513,0.2561,0.2572,0.2585,0.2576,0.2683,0.2684,0.2685,0.2666,0.2667,0.2667,0,0,0,0,0,0.2208,0.2235,0.2245,0.2258,0.2335,0.2383,0.2393,0.2424,0.2424,0.2439,0.247,0.2484,0.2576,0.2565,0.2578,0.2592,0.2682,0.2684,0.2685,0.2666,0.2667,0.2667,0,0,0,0,0,0,0.2182,0.2243,0.2254,0.23,0.2336,0.2389,0.2409,0.2424,0.2461,0.2461,0.2498,0.2509,0.255,0.2575,0.2563,0.2629,0.263,0.2634,0.2611,0.2612,0.2612,0.2605,0.2579,0,0,0,0,0,0.2181,0.2216,0.2267,0.2302,0.232,0.2361,0.2383,0.2404,0.2443,0.2458,0.2493,0.253,0.2567,0.2591,0.2628,0.267,0.2682,0.2686,0.2686,0.2686,0.2689,0.2712,0.2715,0.269,0.269,0.269,0,0,0.218,0.2218,0.2238,0.2298,0.2329,0.2363,0.2374,0.241,0.2436,0.2464,0.2508,0.2534,0.2578,0.2621,0.2641,0.2643,0.2698,0.2688,0.2687,0.269,0.2714,0.2716,0.2718,0.2691,0.2691,0.2691,0,0,0.2197,0.2229,0.2261,0.2292,0.2338,0.2365,0.2372,0.2423,0.2442,0.2486,0.2507,0.2538,0.2602,0.2632,0.2655,0.2682,0.2696,0.2692,0.2694,0.2717,0.2719,0.272,0.273,0.2732,0.2695,0.2695,0.2695,0,0.219,0.2243,0.2276,0.2311,0.2336,0.2363,0.2396,0.2423,0.2479,0.2496,0.2497,0.2576,0.2608,0.2658,0.2664,0.2682,0.2692,0.2687,0.2716,0.2718,0.272,0.2729,0.2733,0.2695,0.2695,0.2695,0.2695,0,0.2232,0.2269,0.2289,0.2343,0.237,0.2404,0.2441,0.2465,0.2483,0.2509,0.2553,0.2592,0.2636,0.265,0.2667,0.2702,0.2702,0.2709,0.271,0.2721,0.273,0.2734,0.2693,0.2694,0.2694,0.2694,0,0,0.2235,0.2305,0.2312,0.2336,0.2389,0.2418,0.2452,0.2496,0.2516,0.2553,0.2582,0.2635,0.2641,0.2668,0.2689,0.2709,0.2727,0.2714,0.2715,0.2715,0.2767,0.2761,0.2765,0.2736,0.2737,0.2738,0.2763,0,0.2258,0.2322,0.2351,0.2401,0.2435,0.246,0.249,0.2525,0.2551,0.2583,0.261,0.2647,0.2653,0.2669,0.269,0.272,0.2738,0.2719,0.2764,0.2765,0.2752,0.277,0.2764,0.2786,0.2767,0.2767,0.2768,0,0.2294,0.2331,0.2384,0.2432,0.2448,0.2474,0.2516,0.2547,0.2587,0.2604,0.2633,0.2653,0.269,0.2688,0.2739,0.2725,0.2745,0.2763,0.2764,0.277,0.2767,0.2776,0.2794,0.2797,0.2774,0.2773,0.2773,0,0.229,0.2354,0.2394,0.2414,0.2471,0.2488,0.2513,0.2552,0.2576,0.2613,0.2629,0.2669,0.2691,0.2722,0.2752,0.2748,0.2799,0.2801,0.2814,0.2813,0.2824,0.2823,0.2846,0.2837,0.2837,0.2837,0.2837,0,0.2313,0.2345,0.2393,0.2417,0.2453,0.2486,0.2521,0.2547,0.2582,0.2611,0.2635,0.2662,0.2701,0.2733,0.2756,0.2794,0.2804,0.2819,0.2825,0.2817,0.2815,0.2831,0.283,0.2838,0.2837,0.2837,0.2837,0,0.2315,0.2349,0.2394,0.2444,0.2457,0.2482,0.2524,0.2548,0.2575,0.2612,0.2622,0.2663,0.2702,0.2735,0.2786,0.2802,0.2841,0.2848,0.2828,0.2831,0.2843,0.2841,0.2876,0.2883,0.2869,0.2869,0.2869,0,0.2328,0.2353,0.2405,0.2427,0.2451,0.2486,0.251,0.2544,0.2568,0.2615,0.2634,0.2674,0.2708,0.2769,0.2803,0.2841,0.285,0.2859,0.2856,0.2847,0.285,0.2848,0.2851,0.286,0.286,0.286,0.286,0,0.2346,0.2361,0.2396,0.2437,0.2466,0.2499,0.2534,0.255,0.2589,0.2616,0.2655,0.2682,0.2733,0.2773,0.2816,0.284,0.2856,0.286,0.2866,0.2858,0.2845,0.2852,0.2828,0.286,0.286,0.286,0.286,0.286,0.2354,0.2377,0.2417,0.2455,0.2485,0.2516,0.2541,0.257,0.2604,0.2649,0.2666,0.2707,0.2745,0.2804,0.2828,0.286,0.2863,0.287,0.2872,0.2874,0.2872,0.2839,0.2868,0.2868,0.2868,0.2868,0.2868,0,0.2373,0.24,0.2435,0.2482,0.2512,0.2524,0.2562,0.2586,0.2622,0.2656,0.2689,0.2734,0.2773,0.2809,0.2849,0.2868,0.2876,0.2877,0.2876,0.2882,0.2868,0.2859,0.287,0.287,0.287,0.287,0.287,0.287,0.2387,0.2426,0.2446,0.25,0.2527,0.2567,0.2588,0.2616,0.2644,0.2694,0.2726,0.2749,0.2785,0.2827,0.2863,0.2872,0.2886,0.2885,0.2897,0.2883,0.2883,0.2882,0.2874,0.2888,0.2888,0.2908,0.2908,0.2908]},{"header":{"parameterUnit":"m.s-1","parameterCategory":1,"la1":30.2991,"la2":30.254,"lo1":-89.0895,"lo2":-89.0444,"dy":0.0017,"dx":0.0017,"nx":28,"ny":28,"refTime":"2024-05-28T09:00:00:Z","depth":0,"parameterNumber":3,"parameterNumberName":"V-component_of_WINDS"},"data":[0,0,0,0,0,0,0,0,0,0,0,0,0,0,0,0,0,0,0,0,0,0,0,0,0,0,0,0,0,0,0,0,0,0,0,0,0,0,0,0,0,0,0,0,0,0,0,0,0,0,0,0,0,0,0,0,0,0,3.7972,3.7972,0,3.7964,3.7964,3.7964,3.7919,3.7918,3.7917,3.7916,3.7908,3.7909,3.791,0,0,0,0,0,0,0,0,0,0,0,0,0,3.7947,3.7948,3.7972,3.7972,3.7972,3.7964,3.7964,3.7964,3.7919,3.7918,3.7916,3.7915,3.7908,3.7909,3.791,0,0,0,0,0,0,0,0,0,0,0,0,0,3.7951,3.7948,3.7972,3.7948,3.7946,3.7964,3.7964,3.7964,3.7919,3.7918,3.7916,3.7914,3.7908,3.7909,3.791,3.7951,0,0,3.7914,3.7915,0,0,0,0,0,0,0,0,3.795,3.7952,3.7952,3.795,3.7947,3.7941,3.7953,3.796,3.792,3.7929,3.7916,3.7914,3.7921,3.7921,3.7923,3.7951,3.795,3.7914,3.7915,3.7916,3.7916,0,0,0,0,0,0,0,3.795,3.7952,3.7969,3.7952,3.7949,3.7938,3.7937,3.7954,3.7934,3.7928,3.7925,3.7925,3.7919,3.7922,3.7922,3.795,3.7914,3.7915,3.7916,3.7917,3.8011,3.8012,0,0,0,0,0,0,3.7953,3.7952,3.7969,3.7969,3.7945,3.794,3.7938,3.7945,3.7934,3.7931,3.7926,3.7923,3.7921,3.7921,3.7922,3.7969,3.7916,3.7917,3.7917,3.8009,3.8011,3.8013,0,0,0,0,0,0,3.7953,3.7955,3.7969,3.7959,3.796,3.7942,3.7949,3.7945,3.7948,3.7932,3.7929,3.7933,3.7919,3.792,3.7944,3.7968,3.7917,3.7918,3.8007,3.8009,3.8012,3.8062,0,0,0,0,0,0,3.7952,3.7955,3.7971,3.796,3.7961,3.7992,3.7951,3.7946,3.795,3.7946,3.7937,3.7934,3.7918,3.7942,3.7945,3.7969,3.7919,3.8005,3.8008,3.8011,3.8059,3.8066,3.8073,0,0,0,0,0,3.7952,3.7985,3.7972,3.7974,3.798,3.7993,3.7994,3.7974,3.7952,3.7967,3.7957,3.7935,3.7965,3.7945,3.7948,3.7972,3.8003,3.8007,3.8011,3.8055,3.8065,3.8073,0,0,0,0,0,0,3.8,3.7983,3.7968,3.7999,3.7998,3.7985,3.8004,3.7985,3.7989,3.7985,3.796,3.7959,3.7986,3.7981,3.796,3.8011,3.798,3.7985,3.8013,3.8022,3.8029,3.8029,3.792,0,0,0,0,0,3.8014,3.8026,3.8011,3.804,3.804,3.8022,3.8027,3.8012,3.801,3.8009,3.8001,3.7999,3.8008,3.8015,3.8022,3.8058,3.8055,3.8076,3.8083,3.8089,3.8093,3.8112,3.812,3.8026,3.8026,3.8026,0,0,3.8043,3.8036,3.8045,3.805,3.8047,3.806,3.8022,3.8038,3.8047,3.8011,3.8033,3.8027,3.8024,3.8054,3.8066,3.8051,3.8119,3.8094,3.8099,3.81,3.8116,3.8125,3.8133,3.8028,3.8028,3.8027,0,0,3.8103,3.8099,3.8123,3.812,3.8116,3.8104,3.811,3.81,3.8095,3.8116,3.809,3.8101,3.8117,3.8115,3.8117,3.8177,3.8156,3.818,3.8218,3.8236,3.8244,3.825,3.8271,3.8279,3.8184,3.8184,3.8184,0,3.814,3.8159,3.8137,3.8154,3.8157,3.8125,3.8149,3.8148,3.8147,3.8149,3.8131,3.8151,3.8146,3.8175,3.819,3.8192,3.8198,3.8181,3.8244,3.8251,3.8256,3.8276,3.8284,3.8187,3.8187,3.8187,3.8186,0,3.8205,3.8218,3.8238,3.8237,3.8242,3.8262,3.8243,3.8251,3.8236,3.8225,3.8248,3.8241,3.8247,3.8252,3.8238,3.8279,3.827,3.8249,3.8217,3.8269,3.8287,3.8294,3.8191,3.819,3.819,3.8189,0,0,3.8295,3.8282,3.8289,3.8288,3.8281,3.8291,3.831,3.8316,3.8322,3.8323,3.8338,3.8352,3.8333,3.8334,3.8319,3.8335,3.8383,3.8312,3.8311,3.8325,3.8428,3.8444,3.8453,3.8369,3.837,3.8371,3.8428,0,3.8353,3.8384,3.8365,3.8399,3.8411,3.8381,3.8397,3.8395,3.8386,3.8395,3.8385,3.8395,3.8368,3.8369,3.8384,3.8374,3.8403,3.8369,3.8383,3.8384,3.8384,3.8463,3.8479,3.8533,3.8435,3.8436,3.8437,0,3.8424,3.8427,3.8462,3.8453,3.8457,3.8472,3.8475,3.8484,3.8481,3.8473,3.8475,3.8456,3.8474,3.8443,3.8467,3.8445,3.845,3.8446,3.8447,3.8448,3.8414,3.8465,3.855,3.8558,3.8448,3.8447,3.8447,0,3.8486,3.8499,3.8522,3.8522,3.8512,3.8523,3.8519,3.8514,3.8518,3.8521,3.8524,3.8529,3.8532,3.8536,3.8519,3.8498,3.8545,3.8513,3.8539,3.854,3.8551,3.855,3.8638,3.8554,3.8554,3.8554,3.8553,0,3.8552,3.8575,3.8549,3.8563,3.8588,3.8566,3.8591,3.8584,3.858,3.8592,3.8566,3.8578,3.8555,3.8564,3.8551,3.8573,3.8575,3.8569,3.8565,3.8571,3.8572,3.8574,3.8569,3.8556,3.8555,3.8555,3.8555,0,3.8626,3.8609,3.8632,3.862,3.8618,3.8637,3.8626,3.8639,3.8628,3.8644,3.8646,3.8629,3.8639,3.8623,3.8631,3.8622,3.8653,3.8643,3.8654,3.8651,3.8678,3.8676,3.877,3.8781,3.869,3.8691,3.8692,0,3.8669,3.8686,3.8676,3.8682,3.8679,3.869,3.8694,3.8673,3.8678,3.8675,3.8688,3.8696,3.8701,3.8719,3.8707,3.8713,3.8704,3.8736,3.8705,3.871,3.8704,3.8703,3.8705,3.8743,3.8744,3.8745,3.8746,0,3.8748,3.8739,3.8745,3.875,3.8755,3.8757,3.8758,3.8764,3.8742,3.8749,3.8759,3.8763,3.8771,3.8779,3.8782,3.8779,3.8759,3.8756,3.8762,3.8768,3.8774,3.8771,3.8671,3.8754,3.8753,3.8752,3.8752,3.8751,3.8807,3.8821,3.8815,3.8824,3.8822,3.8823,3.8834,3.8824,3.8832,3.8837,3.8824,3.8837,3.8833,3.8835,3.8833,3.8843,3.8829,3.8838,3.8841,3.8843,3.8848,3.8772,3.8844,3.8844,3.8843,3.8843,3.8843,0,3.8884,3.8879,3.8887,3.8888,3.8895,3.8875,3.8875,3.8882,3.8893,3.8891,3.8897,3.8908,3.8916,3.8905,3.8911,3.8921,3.8912,3.8923,3.8922,3.8922,3.886,3.8854,3.893,3.893,3.893,3.893,3.893,3.893,3.8925,3.8947,3.8937,3.8958,3.8952,3.8965,3.8966,3.8967,3.8965,3.8979,3.8985,3.8977,3.8972,3.8977,3.8984,3.898,3.8984,3.8998,3.8992,3.8934,3.8926,3.8918,3.8912,3.8999,3.8999,3.9052,3.9053,3.9053]}]]